ROMMA est une association bénévole à but non lucratif. Votre soutien est indispensable : ADHERER à ROMMA ou FAIRE un DON

Granges-lès-Beaumont - (26, Drôme)

Drôme des Collines (155 m)   Longitude: 04°58'E   Latitude: 45°03'N Station partenaire n°123
 

Détail journalier du     <<     >>

Température Precipitation Humidité Pression Vent Dir Rafale Dir. rafale Ensol.
Heure (°C) (mm) (%) (hPa) (km/h) (km/h) (min)
01:00 12.2078100210SSO29SSO0
02:00 13.0075100014SSO37SSO0
03:00 14.2073100017SSO35SO0
04:00 14.5074100016SSO40S0
05:00 13.31.288100112SO32SO0
06:00 12.76.291100013SSE40SE0
07:00 12.309210013E13SE0
08:00 12.409210024NNE15S0
09:00 12.309210035N15SE0
10:00 13.708910033NE13SE0
11:00 13.308910042NO10E0
12:00 13.208710042---15E0
13:00 14.108410044SSO16S0
14:00 14.40.68010047S21S0
15:00 14.307610038SSE21SSE0
16:00 13.807510037SSE18SE20
17:00 13.607410047SSO16S20
18:00 12.908010059S24S0
19:00 12.508110053SSO13S0
20:00 12.208210063SSO15S0
21:00 12.108110067SSO18SSO0
22:00 12.2080100610SSO24S0
23:00 11.9083100610SSO19S0
minuit 11.708210068SSO23S0

Graphique du 27-11-2019

 

Serveur OMMA